Location: Grand Lay
(47.3253°N, 0.9468°E)
Time: 15:44:42
(UTC+00:00)

FengYun 1-2 T - Pass Details

Date: 18 January 2026
Orbit: 844 x 880 km, 98.8° (Epoch: 9 February)

Event Time Altitude Azimuth Distance (km) Brightness Sun altitude
Rises 04:56:36 0° 13° (NNE) 3,457 7.5 -26.7°
Reaches altitude 10° 04:59:00 10° 12° (NNE) 2,510 6.7 -26.3°
Maximum altitude 05:04:34 77° 287° (WNW) 882 4.0 -25.3°
Enters shadow 05:06:42 39° 209° (SSW) 1,256 4.8 -25.0°
